�������l�o���
Date,Time,MP-1(��Sv/h),MP-2(��Sv/h),MP-3(��Sv/h),MP-4(��Sv/h),MP-5(��Sv/h),MP-6(��Sv/h),MP-7(��Sv/h),MP-8(��Sv/h),����,����(m/s),���J
2023/02/18,00:00,0.556,0.802,0.507,1.022,0.713,0.318,0.577,0.549,��쐼,7.0,��
2023/02/18,00:10,0.558,0.802,0.507,1.020,0.711,0.319,0.577,0.549,��쐼,7.5,��
2023/02/18,00:20,0.557,0.803,0.507,1.020,0.713,0.318,0.577,0.549,��쐼,7.1,��
2023/02/18,00:30,0.555,0.804,0.506,1.019,0.712,0.318,0.576,0.550,��쐼,6.9,��
2023/02/18,00:40,0.556,0.804,0.507,1.021,0.714,0.319,0.576,0.550,��쐼,7.0,��
2023/02/18,00:50,0.555,0.805,0.505,1.020,0.710,0.318,0.575,0.549,��쐼,6.1,��
2023/02/18,01:00,0.555,0.804,0.505,1.021,0.713,0.318,0.578,0.548,��쐼,6.8,��
2023/02/18,01:10,0.556,0.805,0.506,1.021,0.712,0.319,0.578,0.549,��쐼,6.5,��
2023/02/18,01:20,0.557,0.805,0.506,1.022,0.713,0.320,0.578,0.548,��쐼,6.0,��
2023/02/18,01:30,0.556,0.804,0.507,1.022,0.714,0.319,0.578,0.550,��쐼,5.7,��
2023/02/18,01:40,0.556,0.802,0.507,1.022,0.713,0.319,0.578,0.549,��쐼,6.2,��
2023/02/18,01:50,0.557,0.805,0.506,1.022,0.713,0.319,0.577,0.549,�쐼,6.1,��
2023/02/18,02:00,0.557,0.803,0.507,1.022,0.712,0.319,0.577,0.549,��쐼,6.4,��
2023/02/18,02:10,0.555,0.804,0.505,1.023,0.712,0.320,0.577,0.550,��쐼,5.8,��
2023/02/18,02:20,0.556,0.802,0.505,1.020,0.714,0.319,0.577,0.549,��쐼,4.8,��
2023/02/18,02:30,0.557,0.805,0.506,1.022,0.712,0.320,0.578,0.548,��쐼,5.3,��
2023/02/18,02:40,0.556,0.804,0.506,1.022,0.711,0.319,0.576,0.548,�쐼,4.6,��
2023/02/18,02:50,0.556,0.804,0.505,1.022,0.711,0.319,0.575,0.549,��쐼,4.5,��
2023/02/18,03:00,0.556,0.803,0.506,1.020,0.713,0.320,0.577,0.548,��쐼,5.2,��
2023/02/18,03:10,0.556,0.805,0.509,1.022,0.714,0.318,0.577,0.549,�쐼,5.8,��
2023/02/18,03:20,0.556,0.803,0.505,1.023,0.712,0.318,0.576,0.550,���쐼,6.0,��
2023/02/18,03:30,0.558,0.803,0.506,1.021,0.712,0.319,0.577,0.550,��쐼,5.6,��
2023/02/18,03:40,0.557,0.805,0.507,1.021,0.711,0.319,0.578,0.549,��쐼,5.5,��
2023/02/18,03:50,0.556,0.805,0.507,1.024,0.713,0.321,0.577,0.549,��,5.2,��
2023/02/18,04:00,0.557,0.806,0.506,1.022,0.711,0.318,0.575,0.547,��,6.0,��
2023/02/18,04:10,0.557,0.805,0.506,1.020,0.713,0.318,0.577,0.550,��,5.1,��
2023/02/18,04:20,0.556,0.804,0.505,1.022,0.712,0.319,0.576,0.549,��,4.7,��
2023/02/18,04:30,0.556,0.805,0.506,1.023,0.713,0.319,0.576,0.550,��쐼,4.0,��
2023/02/18,04:40,0.557,0.802,0.506,1.022,0.713,0.318,0.576,0.550,��쐼,4.8,��
2023/02/18,04:50,0.555,0.804,0.506,1.022,0.712,0.319,0.578,0.548,��쐼,6.0,��
2023/02/18,05:00,0.555,0.803,0.506,1.022,0.712,0.320,0.576,0.548,��쐼,6.0,��
2023/02/18,05:10,0.556,0.805,0.506,1.022,0.713,0.319,0.577,0.549,�쐼,5.8,��
2023/02/18,05:20,0.556,0.805,0.507,1.023,0.712,0.319,0.576,0.548,�쐼,6.3,��
2023/02/18,05:30,0.557,0.804,0.505,1.021,0.710,0.318,0.578,0.550,���쐼,5.6,��
2023/02/18,05:40,0.555,0.804,0.505,1.021,0.712,0.319,0.577,0.550,���쐼,6.2,��
2023/02/18,05:50,0.556,0.802,0.506,1.022,0.713,0.319,0.576,0.550,���쐼,5.8,��
2023/02/18,06:00,0.556,0.804,0.506,1.022,0.714,0.319,0.576,0.550,���쐼,5.6,��
2023/02/18,06:10,0.556,0.803,0.506,1.021,0.712,0.319,0.576,0.548,�쐼,4.7,��
2023/02/18,06:20,0.556,0.806,0.508,1.022,0.711,0.319,0.577,0.549,�쐼,4.2,��
2023/02/18,06:30,0.556,0.805,0.506,1.023,0.712,0.318,0.577,0.549,�쐼,4.6,��
2023/02/18,06:40,0.556,0.802,0.507,1.022,0.714,0.319,0.576,0.550,�쐼,4.2,��
2023/02/18,06:50,0.558,0.803,0.507,1.023,0.713,0.318,0.575,0.549,�쐼,3.7,��
2023/02/18,07:00,0.557,0.804,0.506,1.023,0.712,0.318,0.576,0.549,�쐼,3.2,��
2023/02/18,07:10,0.555,0.806,0.506,1.023,0.713,0.318,0.577,0.547,�쐼,2.6,��
2023/02/18,07:20,0.556,0.805,0.507,1.021,0.711,0.319,0.576,0.549,��쐼,2.2,��
2023/02/18,07:30,0.555,0.803,0.506,1.022,0.712,0.320,0.576,0.549,��쐼,1.9,��
2023/02/18,07:40,0.558,0.802,0.505,1.021,0.713,0.319,0.576,0.548,��쐼,1.5,��
2023/02/18,07:50,0.556,0.804,0.505,1.024,0.712,0.319,0.576,0.548,�쐼,1.2,��
2023/02/18,08:00,0.556,0.807,0.506,1.024,0.712,0.320,0.576,0.547,��쐼,0.8,��
2023/02/18,08:10,0.556,0.806,0.507,1.022,0.713,0.319,0.578,0.548,��쐼,0.6,��
2023/02/18,08:20,0.556,0.804,0.508,1.023,0.713,0.319,0.577,0.547,-,CALM,��
2023/02/18,08:30,0.557,0.805,0.506,1.022,0.714,0.320,0.580,0.548,�쐼,0.9,��
2023/02/18,08:40,0.555,0.804,0.507,1.021,0.714,0.319,0.577,0.548,-,CALM,��
2023/02/18,08:50,0.557,0.805,0.505,1.022,0.714,0.320,0.578,0.545,-,CALM,��
2023/02/18,09:00,0.558,0.805,0.507,1.024,0.713,0.319,0.576,0.548,-,CALM,��
2023/02/18,09:10,0.558,0.806,0.505,1.023,0.712,0.320,0.576,0.548,�쓌,2.5,��
2023/02/18,09:20,0.556,0.805,0.505,1.024,0.714,0.320,0.576,0.548,�쓌,3.6,��
2023/02/18,09:30,0.559,0.803,0.505,1.023,0.711,0.320,0.576,0.548,�쓌,3.1,��
2023/02/18,09:40,0.557,0.803,0.504,1.023,0.714,0.321,0.574,0.548,���쓌,3.2,��
2023/02/18,09:50,0.557,0.805,0.505,1.022,0.714,0.321,0.576,0.547,���쓌,2.6,��
2023/02/18,10:00,0.558,0.804,0.506,1.022,0.714,0.322,0.575,0.550,���쓌,3.0,��
2023/02/18,10:10,0.557,0.804,0.508,1.024,0.715,0.320,0.575,0.550,���쓌,2.3,��
2023/02/18,10:20,0.557,0.803,0.508,1.023,0.716,0.320,0.574,0.550,�쓌,1.9,��
2023/02/18,10:30,0.559,0.804,0.508,1.024,0.717,0.319,0.576,0.550,�k��,1.8,��
2023/02/18,10:40,0.559,0.804,0.508,1.025,0.714,0.321,0.576,0.552,���k��,4.2,��
2023/02/18,10:50,0.558,0.806,0.508,1.026,0.715,0.320,0.577,0.550,��,6.4,��
2023/02/18,11:00,0.559,0.804,0.506,1.024,0.715,0.321,0.577,0.552,��,5.7,��
2023/02/18,11:10,0.558,0.806,0.509,1.024,0.715,0.321,0.579,0.552,��,4.1,��
2023/02/18,11:20,0.558,0.805,0.507,1.025,0.715,0.320,0.577,0.550,��,5.1,��
2023/02/18,11:30,0.558,0.805,0.507,1.025,0.715,0.319,0.578,0.551,���k��,4.7,��
2023/02/18,11:40,0.557,0.805,0.506,1.025,0.715,0.319,0.577,0.552,���k��,5.4,��
2023/02/18,11:50,0.556,0.804,0.507,1.024,0.715,0.320,0.579,0.550,��,2.6,��
2023/02/18,12:00,0.556,0.804,0.508,1.026,0.717,0.318,0.576,0.551,���k��,4.2,��
2023/02/18,12:10,0.557,0.806,0.508,1.026,0.715,0.319,0.578,0.551,���k��,4.1,��
2023/02/18,12:20,0.558,0.805,0.506,1.025,0.714,0.320,0.578,0.552,��,6.6,��
2023/02/18,12:30,0.560,0.806,0.507,1.026,0.715,0.321,0.578,0.552,���k��,7.6,��
2023/02/18,12:40,0.559,0.807,0.508,1.026,0.714,0.319,0.578,0.550,��,6.2,��
2023/02/18,12:50,0.558,0.805,0.507,1.026,0.715,0.320,0.577,0.550,���k��,5.4,��
2023/02/18,13:00,0.560,0.805,0.508,1.025,0.714,0.321,0.578,0.550,��,6.6,��
2023/02/18,13:10,0.559,0.808,0.507,1.024,0.713,0.321,0.580,0.549,���쐼,5.8,��
2023/02/18,13:20,0.560,0.805,0.506,1.025,0.713,0.321,0.579,0.548,��,6.6,��
2023/02/18,13:30,0.558,0.805,0.506,1.025,0.714,0.322,0.578,0.549,��,6.2,��
2023/02/18,13:40,0.557,0.805,0.507,1.025,0.714,0.321,0.578,0.549,��,4.8,��
2023/02/18,13:50,0.559,0.806,0.507,1.026,0.713,0.322,0.578,0.550,��,6.6,��
2023/02/18,14:00,0.558,0.803,0.509,1.028,0.712,0.322,0.579,0.549,���k��,7.5,��
2023/02/18,14:10,0.558,0.806,0.507,1.029,0.714,0.321,0.578,0.550,���k��,4.9,��
2023/02/18,14:20,0.561,0.806,0.509,1.028,0.716,0.323,0.577,0.550,���쐼,5.7,��
2023/02/18,14:30,0.562,0.807,0.508,1.027,0.715,0.320,0.578,0.551,���쐼,3.8,��
2023/02/18,14:40,0.561,0.809,0.510,1.028,0.717,0.321,0.578,0.550,��,5.2,��
2023/02/18,14:50,0.562,0.808,0.509,1.027,0.714,0.321,0.579,0.551,��쓌,8.2,��
2023/02/18,15:00,0.561,0.807,0.509,1.027,0.715,0.323,0.579,0.551,��쓌,9.0,��
2023/02/18,15:10,0.560,0.808,0.507,1.028,0.715,0.322,0.577,0.550,��쓌,7.4,��
2023/02/18,15:20,0.560,0.808,0.508,1.026,0.715,0.321,0.578,0.550,��쓌,6.4,��
2023/02/18,15:30,0.561,0.806,0.508,1.028,0.715,0.320,0.578,0.550,��,7.0,��
2023/02/18,15:40,0.560,0.806,0.510,1.028,0.715,0.320,0.579,0.549,��,5.9,��
2023/02/18,15:50,0.560,0.804,0.510,1.028,0.715,0.321,0.579,0.549,��,6.0,��
2023/02/18,16:00,0.562,0.808,0.511,1.027,0.714,0.322,0.577,0.550,��,5.6,��
2023/02/18,16:10,0.563,0.808,0.510,1.027,0.714,0.323,0.577,0.550,��,5.9,��
2023/02/18,16:20,0.561,0.808,0.509,1.026,0.716,0.321,0.577,0.549,��쐼,4.6,��
2023/02/18,16:30,0.561,0.809,0.509,1.027,0.717,0.321,0.577,0.551,�쐼,2.9,��
2023/02/18,16:40,0.563,0.811,0.510,1.029,0.715,0.321,0.579,0.552,���쐼,3.2,��
2023/02/18,16:50,0.560,0.809,0.510,1.027,0.718,0.323,0.578,0.551,��쐼,3.3,��
2023/02/18,17:00,0.560,0.811,0.508,1.026,0.717,0.321,0.577,0.553,��,2.8,��
2023/02/18,17:10,0.560,0.809,0.508,1.026,0.719,0.322,0.578,0.553,���k��,5.6,��
2023/02/18,17:20,0.562,0.810,0.508,1.027,0.717,0.321,0.578,0.552,���k��,5.3,��
2023/02/18,17:30,0.560,0.809,0.509,1.027,0.718,0.321,0.576,0.551,��,5.3,��
2023/02/18,17:40,0.560,0.809,0.508,1.030,0.719,0.322,0.578,0.551,���k��,4.8,��
2023/02/18,17:50,0.558,0.808,0.509,1.027,0.717,0.321,0.576,0.550,���k��,4.9,��
2023/02/18,18:00,0.560,0.808,0.508,1.027,0.718,0.321,0.578,0.551,���k��,5.2,��
2023/02/18,18:10,0.560,0.810,0.509,1.029,0.717,0.320,0.578,0.550,���k��,4.8,��
2023/02/18,18:20,0.560,0.807,0.507,1.028,0.718,0.319,0.577,0.551,���k��,4.3,��
2023/02/18,18:30,0.559,0.810,0.507,1.028,0.717,0.321,0.577,0.551,���k��,3.6,��
2023/02/18,18:40,0.561,0.809,0.509,1.028,0.715,0.321,0.578,0.551,���k��,2.0,��
2023/02/18,18:50,0.561,0.810,0.507,1.026,0.718,0.320,0.579,0.551,���k��,2.2,��
2023/02/18,19:00,0.560,0.809,0.509,1.028,0.716,0.321,0.578,0.552,�k��,2.2,��
2023/02/18,19:10,0.560,0.808,0.508,1.028,0.718,0.319,0.578,0.550,�k��,4.0,��
2023/02/18,19:20,0.559,0.808,0.508,1.028,0.718,0.320,0.579,0.552,�k��,4.7,��
2023/02/18,19:30,0.560,0.809,0.509,1.029,0.718,0.322,0.578,0.552,�k��,4.0,��
2023/02/18,19:40,0.558,0.811,0.510,1.029,0.717,0.321,0.578,0.551,�k��,4.3,��
2023/02/18,19:50,0.561,0.808,0.508,1.028,0.717,0.320,0.580,0.551,�k��,5.6,��
2023/02/18,20:00,0.560,0.809,0.509,1.029,0.718,0.320,0.579,0.552,�k��,5.4,��
2023/02/18,20:10,0.559,0.808,0.510,1.028,0.717,0.320,0.579,0.552,�k��,6.1,��
2023/02/18,20:20,0.559,0.809,0.507,1.027,0.717,0.320,0.579,0.552,�k��,4.1,��
2023/02/18,20:30,0.561,0.809,0.508,1.028,0.719,0.321,0.579,0.550,�k��,3.5,��
2023/02/18,20:40,0.560,0.807,0.509,1.029,0.718,0.320,0.578,0.551,�k��,2.9,��
2023/02/18,20:50,0.560,0.810,0.509,1.027,0.717,0.320,0.579,0.553,�k��,2.8,��
2023/02/18,21:00,0.562,0.808,0.510,1.029,0.719,0.322,0.577,0.550,���k��,2.3,��
2023/02/18,21:10,0.560,0.811,0.507,1.028,0.718,0.321,0.579,0.551,�k��,2.0,��
2023/02/18,21:20,0.561,0.809,0.509,1.028,0.717,0.321,0.578,0.550,�k�k��,2.5,��
2023/02/18,21:30,0.560,0.809,0.508,1.028,0.718,0.320,0.578,0.551,�k�k��,2.3,��
2023/02/18,21:40,0.560,0.810,0.507,1.030,0.717,0.321,0.578,0.551,�k��,2.9,��
2023/02/18,21:50,0.560,0.810,0.509,1.028,0.718,0.322,0.580,0.550,�k�k��,3.4,��
2023/02/18,22:00,0.560,0.808,0.507,1.031,0.718,0.321,0.579,0.551,�k�k��,2.6,��
2023/02/18,22:10,0.560,0.809,0.508,1.029,0.716,0.321,0.578,0.551,�k�k��,2.3,��
2023/02/18,22:20,0.562,0.809,0.508,1.028,0.720,0.321,0.577,0.551,�k�k��,1.9,��
2023/02/18,22:30,0.559,0.808,0.509,1.029,0.718,0.320,0.578,0.551,�k�k��,2.2,��
2023/02/18,22:40,0.562,0.810,0.507,1.028,0.718,0.323,0.578,0.551,�k��,3.1,��
2023/02/18,22:50,0.561,0.812,0.510,1.026,0.718,0.321,0.577,0.552,�k�k��,3.1,��
2023/02/18,23:00,0.562,0.809,0.508,1.029,0.720,0.321,0.581,0.550,�k��,3.7,��
2023/02/18,23:10,0.560,0.809,0.509,1.031,0.717,0.320,0.580,0.550,�k��,3.5,��
2023/02/18,23:20,0.559,0.809,0.510,1.029,0.718,0.321,0.579,0.551,�k��,2.3,��
2023/02/18,23:30,0.561,0.809,0.508,1.029,0.719,0.322,0.579,0.551,�k,2.0,��
2023/02/18,23:40,0.562,0.810,0.510,1.028,0.718,0.322,0.578,0.552,�k,2.5,��
2023/02/18,23:50,0.561,0.809,0.508,1.030,0.717,0.321,0.578,0.551,�k,2.5,��
